Regional Weather Roundup
Issued by NWS Sterling, VA

Home | Current Version | Previous Version | Text Only | Print | Product List | Glossary Off
Versions: 1 2 3 4 5 6 7 8 9 10 11 12 13 14 15 16 17 18 19 20 21 22 23 24 25 26 27 28 29 30 31 32 33 34 35 36 37 38 39 40 41 42 43 44 45 46 47 48 49 50

000
ASUS41 KLWX 021110
RWRLWX

REGIONAL WEATHER ROUNDUP
NATIONAL WEATHER SERVICE BALTIMORE MD/WASHINGTON DC
700 AM EDT TUE JUN 02 2015

Note: "FAIR" indicates few or no clouds below 12,000 feet
with no significant weather and/or obstructions to visibility.
 TC=TEMPERATURE CELSIUS

 * =Non NWS site. Station does not report precipitation (e.g. rain,
    snow, etc.), thunder, or fog.

DCZ001-MDZ009-015-VAZ040>042-051-053>054-021200-
WASHINGTON METRO

CITY           SKY/WX    TMP DP  RH WIND       PRES   REMARKS
WASHINGTON NAT DRIZZLE   70  66  87 NE10      30.01R FOG
DULLES         DRIZZLE   63  61  94 N12       30.02R FOG
ANDREWS AFB    CLOUDY    69  68  99 NE5       30.00S
FT BELVOIR     CLOUDY    69  67  94 CALM      30.00S FOG
QUANTICO       CLOUDY    68  65  90 N3        30.00S
COLLEGE PARK*  CLOUDY    63  63 100 NE5       30.02R
LEESBURG*      CLOUDY    61  61 100 N7G17     30.04R FOG
GAITHERSBURG*  CLOUDY    61  57  88 CALM      30.06S

$$

MDZ006>007-011-014-021200-
BALTIMORE METRO

CITY           SKY/WX    TMP DP  RH WIND       PRES   REMARKS
BWI AIRPORT    DRIZZLE   60  59  96 NE10      30.03R FOG
MD SCIENCE CTR   N/A     61  58  90 MISG      30.04S
MARTIN STATE   LGT RAIN  61  61 100 NE7       30.06R
ANNAPOLIS      CLOUDY    63  32  31 N12       30.02R HAZE
FORT MEADE*    CLOUDY    61  59  94 NE7       30.05R

$$

MDZ012-015-019>023-021200-
MARYLAND EASTERN SHORE

CITY           SKY/WX    TMP DP  RH WIND       PRES   REMARKS
OCEAN CITY     PTSUNNY   67  65  93 S3        30.00S
SALISBURY      PTSUNNY   67  66  97 CALM      30.00R
BAY BRIDGE AP* DRIZZLE  N/A N/A N/A N7        30.03R
EASTON*        CLOUDY    70  70 100 CALM      30.05R

$$

MDZ017>025-021200-
SOUTHERN MARYLAND

CITY           SKY/WX    TMP DP  RH WIND       PRES   REMARKS
PATUXENT RIVER CLOUDY    69  67  93 S3        29.99S
ST INIGOES       N/A     70  67  90 CALM      29.98S
LEONARDTOWN*   CLOUDY    68  64  88 CALM      30.01S

$$

MDZ003>005-021200-
NORTH CENTRAL MARYLAND

CITY           SKY/WX    TMP DP  RH WIND       PRES   REMARKS
FREDERICK*     LGT RAIN  59  59 100 N9        30.07R VSB 1
HAGERSTOWN APT LGT RAIN  59  57  93 N9        30.05R FOG
WESTMINSTER*   CLOUDY    55  55 100 NE7       30.05R

$$

MDZ501>502-021200-
WESTERN MARYLAND

CITY           SKY/WX    TMP DP  RH WIND       PRES   REMARKS
OAKLAND*       FOG       50 N/A N/A CALM      30.09R VSB 1/2
CUMBERLAND*      N/A     59  59 100 MISG        N/A

$$

VAZ025>031-021200-
SHENANDOAH VALLEY

CITY           SKY/WX    TMP DP  RH WIND       PRES   REMARKS
WINCHESTER*    DRIZZLE   61  59  94 NW6       30.04S
FRONT ROYAL*   CLOUDY    59  59 100 CALM      30.04R
LURAY*         CLOUDY    63  63 100 NE8       30.03S FOG
NEW MARKET*    CLOUDY    61  60  97 N5        30.02R
STAUNTON*      CLOUDY    65  63  94 NW5       30.04R FOG
WAYNESBORO*    CLOUDY    63  63  99 NW3       30.03R

$$

WVZ021-048>050-054>055-021200-
EASTERN WEST VIRGINIA PANHANDLE

CITY           SKY/WX    TMP DP  RH WIND       PRES   REMARKS
MARTINSBURG    CLOUDY    60  57  89 N10       30.05R
PETERSBURG*    DRIZZLE   57  56  95 CALM      30.07S

$$

VAZ036>039-050-021200-
CENTRAL FOOTHILLS

CITY           SKY/WX    TMP DP  RH WIND       PRES   REMARKS
CHARLOTTESVILL CLOUDY    66  65  96 CALM      30.00R
CULPEPER*      CLOUDY    65  64  98 N5        30.01R
ORANGE*        FOG       66  64  94 CALM      30.01S VSB 1/2
GORDONSVILLE*  CLOUDY    64  64 100 CALM      30.00R FOG
WARRENTON*     CLOUDY    68  68 100 N5        30.00R FOG

$$

VAZ055>057-021200-
NORTH AND CENTRAL PIEDMONT

CITY           SKY/WX    TMP DP  RH WIND       PRES   REMARKS
FREDERICKSBRG* CLOUDY    70  70 100 CALM      29.99R
STAFFORD*      PTSUNNY   66  65  97 NW3       30.04R FOG

$$

NCZ024-NYZ072-PAZ021-071-VAZ022-071-021200-
OTHER REGIONAL OBSERVATIONS

CITY           SKY/WX    TMP DP  RH WIND       PRES   REMARKS
NEW YORK CITY  CLOUDY    51  48  89 NE8       30.14R FOG
PHILADELPHIA   LGT RAIN  53  50  89 NE13      30.09R FOG
PITTSBURGH     CLOUDY    53  49  86 N9        30.10R
ROANOKE        CLOUDY    65  63  93 CALM      30.03S
RICHMOND       PTSUNNY   70  67  90 CALM      29.98F
RALEIGH        PTSUNNY   69  66  90 CALM      30.00R

$$

ANZ530>537-021200-
MARINE OBSERVATIONS

STATION/POSITION TIME  TEMP    WIND        PRES
                       AIR SEA DIR/SP/G
                 (UTC) (F)     (DEG/KT/KT) (MB)
THOMAS PT LIGHT  1100   63 73   30/ 16/ 18 1016.8R
BALT KEY BRIDGE  1000   61      10/ 11/ 13 1016.5
COVE POINT       1000   68     200/  6/  7 1016.1
LEWISETTA        1000   69 74              1015.1
SOLOMONS ISLAND  1000      73                N/A
PINEY POINT      1000          180/  5/  6   N/A

$$



USA.gov is the U.S. government's official web portal to all federal, state and local government web resources and services.